Location: Maiden
(35.5760°N, 81.2120°W)
Time: 10:25:09
(UTC-04:00)

Explorer 7 - Visible Passes

Search period start: 04 August 2020 00:00
Search period end: 14 August 2020 00:00
Orbit: 485 x 679 km, 50.3° (Epoch: 03 August)

Date Brightness Start Highest point End Pass type
(mag) Time Alt. Az. Time Alt. Az. Time Alt. Az.
04 Aug 9.9 03:21:45 10° N 03:22:43 11° NNE 03:23:42 10° NNE visible
04 Aug 8.4 05:00:35 10° NW 05:04:06 34° NNE 05:07:44 10° E visible
04 Aug 6.5 22:19:25 10° SW 22:23:12 78° S 22:23:12 78° S visible
05 Aug 9.8 03:25:54 10° NNW 03:27:51 13° NNE 03:29:49 10° NE visible
05 Aug 7.3 05:05:12 10° NW 05:08:57 56° NE 05:12:53 10° ESE visible
05 Aug 7.2 22:24:16 10° WSW 22:28:09 57° NW 22:31:02 16° NE visible
06 Aug 9.9 00:07:17 10° NW 00:07:32 11° NW 00:07:32 11° NW visible
06 Aug 9.4 03:31:13 14° N 03:32:55 18° NNE 03:35:37 10° ENE visible
06 Aug 6.5 05:09:56 10° NW 05:13:45 83° SW 05:17:44 10° SE visible
06 Aug 7.6 20:49:05 10° SSW 20:52:37 29° SE 20:55:59 10° ENE visible
06 Aug 8.3 22:29:24 10° W 22:33:00 34° NNW 22:36:30 10° NE visible
07 Aug 10.0 00:13:25 10° NNW 00:13:58 11° NNW 00:13:58 11° NNW visible
07 Aug 9.0 03:38:56 22° NE 03:38:56 22° NE 03:41:09 10° E visible
07 Aug 6.9 05:15:29 14° WNW 05:18:29 44° SW 05:22:17 10° SSE visible
07 Aug 6.8 20:53:20 10° SSW 20:57:17 53° SE 21:01:04 10° ENE visible
07 Aug 9.0 22:34:46 10° W 22:37:57 23° NNW 22:41:02 10° NNE visible
08 Aug 7.9 05:23:51 23° SSW 05:23:51 23° SSW 05:26:24 10° S visible
08 Aug 6.7 20:57:58 10° SW 21:02:03 85° NW 21:05:55 10° NE visible
08 Aug 9.5 22:40:22 10° WNW 22:42:57 17° NNW 22:45:29 10° NNE visible
09 Aug 7.7 21:02:54 10° WSW 21:06:51 49° NW 21:10:37 10° NE visible
09 Aug 9.7 22:46:12 10° NW 22:48:02 13° NNW 22:49:49 10° N visible
10 Aug 8.7 21:08:06 10° W 21:11:43 31° NNW 21:15:12 10° NNE visible
10 Aug 9.9 22:52:26 10° NNW 22:53:10 10° NNW 22:53:54 10° N visible
11 Aug 9.3 21:13:32 10° WNW 21:16:41 21° NNW 21:19:43 10° NNE visible
12 Aug 9.5 21:19:11 10° WNW 21:21:42 16° NNW 21:24:09 10° NNE visible
13 Aug 9.6 21:25:04 10° NW 21:26:48 12° NNW 21:28:30 10° N visible
